Location: ??????
(48.5936°N, 34.1309°E)
Time: 22:12:43
(UTC+00:00)

Daily predictions for brighter satellites

Satellite Brightness Start Highest point End
(mag) Time Altitude Azimuth Time Altitude Azimuth Time Altitude Azimuth
Lacrosse 5 rocket 3.1 16:00:09 10° WNW 16:03:52 28° N 16:07:45 10° NE
Nadezhda 4 Rocket 4.4 16:02:01 10° N 16:07:44 39° ENE 16:13:25 10° SE
HJ-1C 4.0 16:08:23 10° SE 16:11:24 34° ENE 16:14:27 10° N
COSMO-SKYMED 1 2.8 16:07:59 10° N 16:12:21 77° WNW 16:16:41 10° SSW
Ariane Rocket 4.1 16:09:18 10° ESE 16:13:21 25° ENE 16:17:26 10° N
H-2A R/B 2.3 16:08:52 10° SE 16:13:39 48° ENE 16:18:36 10° N
Cosmos 2263 Rocket 3.2 16:11:56 10° SW 16:17:22 51° NW 16:22:50 10° NNE
SJ 16-02 4.0 16:15:30 10° WSW 16:18:55 22° NW 16:22:21 10° N
NOSS 3-2 (C) 4.1 16:11:35 10° NW 16:18:55 69° NE 16:27:17 10° SE
COSMOS 2406 4.4 16:14:33 10° N 16:19:15 26° NE 16:23:46 11° E
Cosmos 1689 Rocket 4.1 16:18:31 10° N 16:21:16 34° WNW 16:23:59 10° SW
Cosmos 1844 Rocket 2.9 16:16:34 10° S 16:21:51 46° ESE 16:27:10 10° NE
USA 116 3.8 16:19:22 10° NNE 16:22:58 52° ESE 16:26:59 10° S
NOSS 3-4 (A) 4.4 16:20:19 10° SSE 16:24:53 24° ESE 16:29:40 10° ENE
NOSS 3-4 (C) 4.4 16:20:27 10° SSE 16:25:01 24° ESE 16:29:45 10° ENE
Cosmos 372 Rocket 4.0 16:20:10 10° SSW 16:25:25 84° ESE 16:30:40 10° NNE
Cosmos 1939 Rocket 4.4 16:22:26 10° S 16:26:22 42° W 16:30:21 10° NNW
Cosmos 2278 Rocket4.216:28:25ENE16:28:25ENE16:21:43SE
Cosmos 2034 Rocket 4.3 16:20:35 10° SSE 16:26:36 47° E 16:32:37 10° NNE
Cosmos 1844 4.0 16:23:45 10° S 16:29:04 43° ESE 16:34:22 10° NE
Cosmos 1707 2.8 16:25:51 10° NNW 16:29:42 80° W 16:33:31 10° S
Meteor 2-5 Rocket 4.5 16:24:57 10° N 16:30:03 33° ENE 16:35:12 10° SE
Cosmos 1626 3.8 16:29:16 10° NNE 16:31:40 16° ENE 16:32:55 14° E
Meteor 1-12 Rocket 4.3 16:25:59 10° S 16:31:50 71° E 16:37:35 10° NNE
NOSS 2-2 (E) 4.4 16:34:34 10° WSW 16:38:00 43° NW 16:42:02 10° NNE
Lacrosse 4 Rocket 3.4 16:36:05 10° N 16:38:17 14° NE 16:40:15 11° ENE
CENTAUR R/B 3.2 16:30:18 10° NW 16:38:17 80° NE 16:47:07 10° SE
ISS -3.4 16:35:42 10° W 16:39:03 64° NNW 16:41:51 14° ENE
USA 186 2.6 16:39:32 16° SE 16:41:39 31° ENE 16:44:37 10° N
Cosmos 1300 Rocket 3.5 16:38:32 10° S 16:42:57 86° E 16:47:26 10° N
Cosmos 1833 Rocket 3.7 16:40:19 10° NNW 16:45:13 29° NE 16:48:29 17° E
Okean 1 Rocket 3.7 16:42:04 10° SSE 16:46:06 34° E 16:50:09 10° NNE
Cosmos 2298 Rocket 4.0 16:40:48 10° SSW 16:46:07 85° ESE 16:51:30 10° NNE
Sich 1 Rocket 4.4 16:42:28 10° SSW 16:46:55 57° WNW 16:51:27 10° N
ATLAS 2AS CENTAUR R/B 3.5 16:40:12 10° S 16:47:18 37° ESE 16:54:22 10° NE
NOSS 2-2 (D) 4.3 16:44:26 10° WSW 16:47:51 43° NW 16:51:48 10° NNE
CSL-04 Debris 4.4 16:43:20 10° S 16:48:42 73° WSW 16:54:07 10° NNW
Resurs 01 Rocket 3.3 16:48:17 15° ENE 16:49:18 16° ENE 16:52:03 10° NNE
ATLAS 3B R/B 3.3 16:43:59 10° NW 16:50:27 44° NE 16:55:19 18° E
CSL-04 Rocket 3.9 16:45:18 10° S 16:50:45 74° WSW 16:56:19 10° NNW
BREEZE-M DEB (TANK) 4.0 16:52:21 10° SSW 16:55:43 51° SE 17:06:35 10° ENE
Okean 2 Rocket 3.5 16:52:45 10° SSW 16:57:13 68° W 17:01:41 10° N
Cosmos 1025 Rocket 3.6 16:53:01 10° NNW 16:57:21 62° W 17:01:41 10° S
YAOGAN 1 4.1 16:53:51 10° SSW 16:57:54 38° W 17:01:58 10° NNW
Cosmos 1766 3.8 16:55:18 10° SSE 16:58:55 36° E 17:02:33 10° NNE
Milstar 3 Cent rocket 4.4 16:59:51 10° SSW 17:01:00 10° S 17:02:05 10° S
SPOT 3 Rocket 4.4 16:59:30 22° ESE 17:01:43 30° ENE 17:06:11 10° N
Cosmos 1536 Rocket 4.0 17:02:27 10° NNW 17:06:53 66° W 17:11:19 10° S
Cosmos 1125 Rocket 3.4 17:01:41 10° SSW 17:07:00 81° ESE 17:12:21 10° NNE
USA 238 DEB 4.4 17:00:10 10° NW 17:07:12 57° WSW 17:14:30 10° SSE
USA 238 4.4 17:00:16 10° NW 17:07:19 58° WSW 17:14:37 10° SSE
Cosmos 2195 Rocket 4.5 17:03:30 10° N 17:09:42 61° ENE 17:15:30 11° SSE
Abrixas rocket 2.6 17:07:41 10° W 17:10:24 40° SSW 17:10:55 35° S
Cosmos 1464 Rocket 4.4 17:04:43 10° SSW 17:10:48 65° WNW 17:17:00 10° N
CREW DRAGON DEMO-1 DEB 3.4 17:08:40 10° WNW 17:11:37 46° SSW 17:12:23 36° SSE
Cosmos 2026 Rocket 4.1 17:06:18 10° N 17:12:34 56° ENE 17:17:41 16° SSE
Resurs 1-3 4.3 17:11:31 30° E 17:12:40 35° ENE 17:16:39 10° N
Cosmos 1092 Rocket 3.9 17:06:32 10° N 17:12:43 71° ENE 17:18:54 10° SSE
Cosmos 2285 Rocket 3.9 17:06:48 10° SSW 17:13:04 73° ESE 17:19:25 10° NNE
Cosmos 1892 Rocket 4.3 17:09:42 10° N 17:13:37 32° ENE 17:14:14 31° E
CZ-2C R/B 4.3 17:08:39 10° S 17:13:47 45° W 17:19:13 10° NNW
SJ-6B 2.7 17:12:53 30° SE 17:14:33 61° ENE 17:18:19 10° N
CZ-4 R/B 4.1 17:13:36 10° SW 17:16:48 21° W 17:20:00 10° NW
Cosmos 1428 Rocket 4.5 17:15:00 10° N 17:21:12 61° ENE 17:25:34 20° SSE
Cosmos 1674 3.1 17:17:48 10° NNW 17:21:37 62° W 17:25:24 10° S
MOS 1 Rocket 3.6 17:18:56 10° N 17:23:17 61° WNW 17:27:30 10° SSW
TSX-5 3.9 17:22:58 10° SSW 17:26:48 61° ESE 17:31:43 10° NE
ARGOS 3.8 17:23:36 10° S 17:28:51 55° W 17:34:09 10° NNW
Cosmos 2279 Rocket 4.3 17:28:28 28° SE 17:31:04 41° E 17:36:53 10° NNE
CZ-2C R/B 2.6 17:25:47 10° NNE 17:31:22 73° ESE 17:36:59 10° S
FREGAT/IRIS 3.3 17:33:45 42° NNW 17:33:45 42° NNW 17:35:39 10° NNW
MOS 1 4.3 17:30:21 16° SSE 17:34:58 87° WSW 17:40:44 10° NNW
Cosmos 2082 Rocket 2.8 17:33:00 10° NNW 17:38:16 39° NE 17:39:26 35° E
Cosmos 1340 Rocket 2.9 17:39:40 54° ENE 17:39:40 54° ENE 17:43:06 10° NNE
Cosmos 2098 Rocket 4.4 17:33:37 10° N 17:39:54 38° ENE 17:40:52 36° E
Cosmos 1733 3.1 17:38:59 21° SSW 17:41:29 84° W 17:45:20 10° N
DMSP B5D2-2 4.0 17:36:31 10° NNE 17:41:50 76° ESE 17:47:07 10° S
Lacrosse 5 rocket 2.7 17:39:58 10° NW 17:44:00 33° NNE 17:45:05 29° NE
Cosmos 2142 Rocket 4.5 17:40:01 19° SSE 17:44:33 59° E 17:50:39 10° NNE
Ariane Rocket 3.6 17:47:53 15° S 17:51:59 54° W 17:57:00 10° NNW
Cosmos 1805 4.4 17:49:25 10° SSW 17:53:10 44° WNW 17:56:58 10° N
H-2A R/B 4.1 17:49:12 10° SSW 17:53:21 26° W 17:57:36 10° NW
OBJECT-B 1.7 17:55:36 46° NNW 17:55:36 46° NNW 17:58:02 10° NNW
Exosat Rocket 4.2 17:54:45 10° SW 17:59:54 53° WNW 18:04:52 10° NNE
Cosmos 909 Rocket 4.2 17:55:09 10° NNW 18:01:40 58° NE 18:03:01 48° E
Terra 4.0 18:03:57 14° NE 18:03:57 14° NE 18:05:21 10° NNE
COSMOS 2406 3.3 17:58:27 10° NNW 18:04:07 71° WSW 18:05:51 45° S
Okean 1-7 Rocket 3.6 18:00:05 10° N 18:04:24 73° NE 18:04:24 73° NE
Cosmos 1844 Rocket 4.2 18:00:47 10° WSW 18:05:53 35° NW 18:11:01 10° NNE
Cosmos 1626 3.2 18:03:38 10° NNW 18:07:09 42° W 18:07:28 41° WSW
SPOT 1/Viking Rocket 4.4 18:08:05 35° NE 18:08:05 35° NE 18:12:05 10° N
Cosmos 1455 Rocket 4.2 18:10:13 34° NNE 18:10:13 34° NNE 18:12:46 10° NNE
Cosmos 2278 Rocket 2.2 18:03:50 10° SSW 18:10:00 62° E 18:15:03 10° NNE
USA 186 4.5 18:11:04 14° WSW 18:12:27 17° W 18:14:43 10° NW
NOSS 3-4 (A) 3.5 18:09:08 10° SW 18:15:03 76° NW 18:21:30 10° NE
NOSS 3-4 (C) 3.5 18:09:14 10° SW 18:15:09 76° NW 18:21:36 10° NE
Cosmos 2266 Rocket 4.0 18:10:12 10° N 18:15:59 54° ENE 18:15:59 54° ENE
ISS -1.8 18:12:51 10° WNW 18:14:49 29° NW 18:14:49 29° NW
Meteor 1-24 Rocket 4.4 18:10:51 10° NNW 18:16:14 52° W 18:19:24 25° SSW
Lacrosse 4 Rocket 2.2 18:13:36 10° NNW 18:16:33 45° NNW 18:16:33 45° NNW
Meteor 2-19 Rocket 4.3 18:12:25 10° N 18:18:35 88° E 18:19:42 62° SSE
Resurs 01 Rocket 2.0 18:25:52 62° NW 18:25:52 62° NW 18:29:45 10° NNW
CENTAUR R/B 4.5 18:21:33 10° NW 18:28:40 34° WSW 18:34:46 15° SSW
Cosmos 1833 Rocket 2.9 18:23:58 10° NNW 18:29:33 61° WSW 18:30:12 57° SW
Cosmos 2251 Rocket 3.6 18:28:17 10° NNW 18:33:15 76° NNW 18:33:15 76° NNW
ERS-1 Rocket 4.2 18:37:40 31° NNE 18:37:40 31° NNE 18:40:41 10° N
ATLAS 2AS CENTAUR R/B 3.2 18:30:01 10° SW 18:37:58 70° NW 18:45:48 10° NE
ARIANE 5 R/B 3.9 18:42:31 37° NNW 18:42:31 37° NNW 18:45:11 10° NNW
SPOT 3 Rocket 4.4 18:40:10 41° WSW 18:40:58 44° W 18:45:54 10° NNW
ATLAS 3B R/B 3.0 18:34:41 10° NW 18:41:27 60° WSW 18:42:35 54° SSW
Meteor 1-21 Rocket 4.4 18:45:38 10° NNW 18:50:50 72° NNW 18:50:50 72° NNW
Cosmos 1655 Rocket 4.1 18:46:10 10° NNW 18:52:24 68° W 18:52:53 65° WSW
SPOT 5 4.2 18:54:34 36° NNE 18:54:34 36° NNE 18:57:55 10° N
Cosmos 2082 Rocket 3.4 19:17:09 10° NW 19:21:17 37° W 19:21:17 37° W
Lacrosse 5 rocket 3.9 19:19:08 10° NW 19:20:43 22° NW 19:20:43 22° NW
Terra 4.0 19:42:50 22° NNW 19:42:50 22° NNW 19:44:30 10° NNW
Cosmos 2278 Rocket 4.0 19:51:32 20° W 19:53:59 27° NW 19:58:47 10° NNE
ATLAS 2AS CENTAUR R/B 4.5 20:23:23 10° W 20:30:20 32° NNW 20:37:05 10° NE
CZ-4C R/B 4.4 21:00:08 23° NNE 21:00:08 23° NNE 21:03:10 10° NE
SL-16 R/B 4.3 22:05:31 26° NNE 22:05:31 26° NNE 22:09:05 10° N
USA 234 4.1 22:50:11 10° ENE 22:56:08 43° N 22:56:08 43° N
ADEOS II 4.5 22:54:24 10° NE 22:56:28 17° ENE 22:56:28 17° ENE
SJ 16-02 4.4 23:01:42 10° NNE 23:02:26 12° NNE 23:02:26 12° NNE
Cosmos 1697 Rocket 4.3 23:17:28 30° NE 23:17:28 30° NE 23:20:20 10° NE
Cosmos 1980 Rocket 3.9 23:23:46 28° ENE 23:23:46 28° ENE 23:26:59 10° NE
Cosmos 2263 Rocket 3.7 23:17:26 10° NNW 23:22:18 32° NE 23:22:18 32° NE
Lacrosse 5 3.7 23:43:16 29° NE 23:43:16 29° NE 23:45:42 10° NE
SL-16 R/B 4.4 23:42:52 15° ESE 23:43:46 16° E 23:47:04 10° ENE
SL-16 R/B 4.0 23:50:37 26° NNW 23:50:37 26° NNW 23:53:15 10° NNW
Resurs 1-4 Rocket 3.5 23:43:01 10° NNE 23:45:52 33° N 23:45:52 33° N
CZ-2D R/B 3.5 23:49:21 10° N 23:52:17 34° N 23:52:17 34° N
